This is the latest recevied weather packets stored in our database for station/object JK1DXQ-13. If no packets are shown the sender has not sent any weather packets the latest 10 day(s).
| Time | Temp. | Humidity | Pressure | Rain* | Wind** | Luminosity | Snow |
|---|---|---|---|---|---|---|---|
| 1777319176 | 12.78° C | 98% | 1012.5 hPa | 0 mm | - | - | - |
| 1777317976 | 12.78° C | 99% | 1012.4 hPa | 0 mm | - | - | - |
| 1777316777 | 12.78° C | 99% | 1012.3 hPa | 0 mm | - | - | - |
| 1777315576 | 12.78° C | 99% | 1012.1 hPa | 0 mm | - | - | - |
| 1777314376 | 12.22° C | 99% | 1011.8 hPa | 0 mm | - | - | - |
| 1777313177 | 12.22° C | 99% | 1011.5 hPa | 0 mm | - | - | - |
| 1777311976 | 12.22° C | 99% | 1011.1 hPa | 0 mm | - | - | - |
| 1777310776 | 12.22° C | 99% | 1010.9 hPa | 0 mm | - | - | - |
| 1777309577 | 12.78° C | 99% | 1010.8 hPa | 0 mm | - | - | - |
| 1777308376 | 12.22° C | 98% | 1010.9 hPa | 0 mm | - | - | - |
| 1777307177 | 12.22° C | 98% | 1010.7 hPa | 0 mm | - | - | - |
| 1777305977 | 12.78° C | 98% | 1011.1 hPa | 0 mm | - | - | - |
| 1777304776 | 13.33° C | 98% | 1011.4 hPa | 0 mm | - | - | - |
| 1777303577 | 12.78° C | 98% | 1011.6 hPa | 0 mm | - | - | - |
| 1777302375 | 13.33° C | 98% | 1011.3 hPa | 0 mm | - | - | - |
| 1777301176 | 13.33° C | 98% | 1011.6 hPa | 0 mm | - | - | - |
| 1777299977 | 13.89° C | 98% | 1011.8 hPa | 0 mm | - | - | - |
| 1777298776 | 13.89° C | 98% | 1011.6 hPa | 0 mm | - | - | - |
| 1777297577 | 13.89° C | 97% | 1011.3 hPa | 0 mm | - | - | - |
| 1777296376 | 13.89° C | 97% | 1011.2 hPa | 0 mm | - | - | - |
| 1777295176 | 13.89° C | 96% | 1011.1 hPa | 0 mm | - | - | - |
| 1777293977 | 13.89° C | 96% | 1010.9 hPa | 0 mm | - | - | - |
| 1777292776 | 13.89° C | 96% | 1010.9 hPa | 0 mm | - | - | - |
| 1777291576 | 13.89° C | 95% | 1010.5 hPa | 0 mm | - | - | - |
| 1777290375 | 14.44° C | 94% | 1010.4 hPa | 0 mm | - | - | - |
* Rain latest hour (hover to see other rain measurements)
** Current wind speed in m/s (hover to see current wind gust speed)